Location: Pine Mountain Observatory
(43.7910°N, 120.9377°W)
Time: 11:35:39
(UTC-07:00)

Explorer 7 - All Passes

Search period start: 22 May 2019 00:00
Search period end: 01 June 2019 00:00
Orbit: 485 x 680 km, 50.3° (Epoch: 22 May)

Date Brightness Start Highest point End Pass type
(mag) Time Alt. Az. Time Alt. Az. Time Alt. Az.
22 May - 01:27:26 10° WNW 01:31:46 40° NNE 01:35:50 10° E visible
22 May - 03:08:13 10° WNW 03:12:38 76° SSW 03:16:44 10° SE visible
22 May - 04:50:15 10° W 04:52:31 14° SW 04:54:43 10° SSW visible
22 May - 20:29:35 10° SSW 20:34:03 37° SE 20:38:25 10° ENE daylight
22 May - 22:09:46 10° WSW 22:14:35 64° NNW 22:19:11 10° ENE visible
22 May - 23:51:23 10° WNW 23:55:45 36° N 23:59:54 10° ENE visible
23 May - 01:32:35 10° WNW 01:37:01 48° NNE 01:41:11 10° E visible
23 May - 03:13:23 10° WNW 03:17:39 50° SW 03:21:38 10° SE visible
23 May - 18:57:34 10° SSE 18:59:09 11° SE 19:00:43 10° ESE daylight
23 May - 20:34:16 10° SW 20:39:02 55° SE 20:43:41 10° ENE daylight
23 May - 22:15:04 10° W 22:19:46 50° NNW 22:24:17 10° ENE visible
23 May - 23:56:42 10° WNW 00:01:04 36° N 00:05:11 10° ENE visible
24 May - 01:37:41 10° WNW 01:42:13 62° NNE 01:46:27 10° ESE visible
24 May - 03:18:41 10° WNW 03:22:36 32° SW 03:26:17 10° SSE visible
24 May - 19:00:36 10° S 19:03:57 19° SE 19:07:17 10° E daylight
24 May - 20:39:11 10° SW 20:44:05 79° SSE 20:48:50 10° ENE daylight
24 May - 22:20:25 10° W 22:25:01 42° NNW 22:29:25 10° ENE visible
25 May - 00:01:56 10° WNW 00:06:21 38° N 00:10:31 10° ENE visible
25 May - 01:42:48 10° WNW 01:47:22 85° NNE 01:51:38 10° ESE visible
25 May - 03:24:13 10° W 03:27:28 20° SW 03:30:33 10° S visible
25 May - 19:04:39 10° SSW 19:08:49 28° SE 19:12:57 10° ENE daylight
25 May - 20:44:17 10° WSW 20:49:10 77° NNW 20:53:56 10° ENE daylight
25 May - 22:25:47 10° WNW 22:30:18 38° N 22:34:37 10° ENE visible
26 May - 00:07:07 10° WNW 00:11:38 44° NNE 00:15:52 10° E visible
26 May - 01:47:55 10° WNW 01:52:27 67° SSW 01:56:40 10° SE visible
26 May - 03:30:21 10° WSW 03:32:15 13° SW 03:34:06 10° SSW visible
26 May - 19:09:08 10° SSW 19:13:44 42° SE 19:18:18 10° ENE daylight
26 May - 20:49:30 10° WSW 20:54:21 59° NNW 20:59:03 10° ENE daylight
26 May - 22:31:07 10° WNW 22:35:35 37° N 22:39:52 10° ENE visible
27 May - 00:12:15 10° WNW 00:16:51 53° NNE 00:21:11 10° E visible
27 May - 01:53:07 10° WNW 01:57:27 44° SW 02:01:29 10° SSE visible
27 May - 17:36:22 10° SSE 17:38:47 14° SE 17:41:13 10° E daylight
27 May - 19:13:53 10° SW 19:18:44 62° SE 19:23:31 10° ENE daylight
27 May - 20:54:49 10° W 20:59:34 48° NNW 21:04:09 10° ENE daylight
27 May - 22:36:25 10° WNW 22:40:54 37° N 22:45:10 10° ENE visible
28 May - 00:17:22 10° WNW 00:22:03 70° NNE 00:26:26 10° ESE visible
28 May - 01:58:28 10° WNW 02:02:21 28° SW 02:06:02 10° SSE visible
28 May - 17:39:55 10° S 17:43:36 22° SE 17:47:18 10° E daylight
28 May - 19:18:52 10° WSW 19:23:48 87° SSE 19:28:39 10° ENE daylight
28 May - 21:00:11 10° W 21:04:49 41° N 21:09:19 10° ENE visible
28 May - 22:41:38 10° WNW 22:46:11 41° N 22:50:31 10° E visible
29 May - 00:22:28 10° WNW 00:27:10 86° SSW 00:31:34 10° ESE visible
29 May - 02:04:06 10° W 02:07:11 18° SW 02:10:10 10° S visible
29 May - 17:44:08 10° SSW 17:48:28 32° SE 17:52:50 10° ENE daylight
29 May - 19:24:01 10° WSW 19:28:55 70° NNW 19:33:45 10° ENE daylight
29 May - 21:05:32 10° WNW 21:10:06 38° N 21:14:31 10° ENE visible
29 May - 22:46:48 10° WNW 22:51:27 47° NNE 22:55:51 10° E visible
30 May - 00:27:37 10° WNW 00:32:13 59° SW 00:36:32 10° SE visible
30 May - 02:10:39 10° WSW 02:11:57 11° SW 02:13:14 10° SW visible
30 May - 17:48:43 10° SW 17:53:25 48° SE 17:58:08 10° ENE daylight
30 May - 19:29:16 10° W 19:34:06 55° NNW 19:38:51 10° ENE daylight
30 May - 21:10:52 10° WNW 21:15:25 37° N 21:19:48 10° ENE visible
30 May - 22:51:55 10° WNW 22:56:40 59° NNE 23:01:09 10° ESE visible
31 May - 00:32:51 10° WNW 00:37:11 39° SW 00:41:16 10° SSE visible
31 May - 16:15:30 10° SSE 16:18:25 16° SE 16:21:23 10° E daylight
31 May - 17:53:33 10° SW 17:58:26 71° SSE 18:03:19 10° ENE daylight
31 May - 19:34:36 10° W 19:39:20 46° NNW 19:43:59 10° ENE daylight
31 May - 21:16:08 10° WNW 21:20:42 39° N 21:25:07 10° ENE visible
31 May - 22:57:01 10° WNW 23:01:50 77° NNE 23:06:22 10° ESE visible
